Change the Weather History Date:

Thursday, January 2, 2014

  Actual Average Record
Temperature  
Mean Temperature 28 °F -  
Max Temperature 37 °F 32 °F 57 °F (2012)
Min Temperature 20 °F 20 °F - (2000)
Degree Days  
Heating Degree Days 36    
Moisture  
Dew Point 28 °F    
Average Humidity 97    
Maximum Humidity 100    
Minimum Humidity 84    
Precipitation  
Precipitation 0.00 in 0.04 in - ()
Sea Level Pressure  
Sea Level Pressure 29.95 in    
Wind  
Wind Speed 2 mph ()    
Max Wind Speed 7 mph    
Max Gust Speed -    
Visibility 1.5 miles    
Events Fog    
Averages and records for this station are not official NWS values.
T = Trace of Precipitation, MM = Missing Value Source: Averaged Metar Reports

Daily Weather History Graph

Daily Weather History Graph

Search for Another Location

Airport or City:

Trip Planner

Search our weather history database for the weather conditions in past years. The results will help you decide how hot, cold, wet, or windy it might be!

Date:

Astronomy

Jan. 02, 2014 Rise Set
Actual Time 7:39 AM CET 3:50 PM CET
Civil Twilight 7:01 AM CET 4:28 PM CET
Nautical Twilight 6:20 AM CET 5:09 PM CET
Astronomical Twilight 5:40 AM CET 5:49 PM CET
Moon 7:55 AM CET (1/2) 5:37 PM CET (1/2)
Length of Visible Light 9h 27m
Length of Day
8h 10m
New Moon, 2% of the Moon is Illuminated
Jan 2
New Moon
Jan 8
First Quarter
Jan 16
Full
Jan 24
Last Quarter
Jan 30
New

Hourly Weather History & Observations

Time (CET) Temp. Windchill Dew Point Humidity Pressure Visibility Wind Dir Wind Speed Gust Speed Precip Events Conditions
12:00 AM 25 °F - 25 °F 98% 30.11 in 0 mi ENE 2.2 mph - - Fog Heavy Fog
12:00 AM 24.8 °F - 24.8 °F 100% 30.04 in 0.1 mi Variable 1.2 mph - N/A Fog Light Freezing Fog
12:30 AM 24.8 °F - 24.8 °F 100% 30.04 in 0.1 mi Variable 1.2 mph - N/A Fog Light Freezing Fog
1:00 AM 24 °F - 24 °F 100% 30.09 in 0 mi ENE 2.2 mph - - Fog Heavy Fog
1:00 AM 24.8 °F - 24.8 °F 100% 30.04 in 0.1 mi ENE 2.3 mph - N/A Fog Light Freezing Fog
1:30 AM 24.8 °F - 24.8 °F 100% 30.01 in 0.1 mi Calm Calm - N/A Fog Light Freezing Fog
2:00 AM 23 °F - 23 °F 100% 30.09 in 0 mi ESE 2.2 mph - - Fog Heavy Fog
2:00 AM 23.0 °F - 23.0 °F 100% 30.01 in 0.1 mi Variable 1.2 mph - N/A Fog Light Freezing Fog
2:30 AM 23.0 °F - 23.0 °F 100% 30.01 in 0.1 mi Variable 1.2 mph - N/A Fog Light Freezing Fog
3:00 AM 24 °F - 24 °F 97% 30.07 in 0 mi Calm Calm - - Fog Heavy Fog
3:00 AM 23.0 °F - 23.0 °F 100% 30.01 in 0.1 mi Calm Calm - N/A Fog Light Freezing Fog
3:30 AM 23.0 °F - 23.0 °F 100% 29.98 in 0.1 mi ENE 2.3 mph - N/A Fog Light Freezing Fog
4:00 AM 23 °F - 23 °F 98% 30.05 in 0 mi ENE 2.2 mph - - Fog Heavy Fog
4:00 AM 23.0 °F - 23.0 °F 100% 29.98 in 0.1 mi ENE 1.2 mph - N/A Fog Light Freezing Fog
4:30 AM 21.2 °F - 21.2 °F 100% 29.98 in 0.1 mi NE 1.2 mph - N/A Fog Light Freezing Fog
5:00 AM 22 °F - 22 °F 100% 30.03 in 0 mi NE 4.5 mph - - Fog Heavy Fog
5:00 AM 21.2 °F - 21.2 °F 100% 29.95 in 0.1 mi ENE 1.2 mph - N/A Fog Light Freezing Fog
5:30 AM 21.2 °F - 21.2 °F 100% 29.95 in 0.6 mi East 2.3 mph - N/A   Mist
6:00 AM 21 °F - 21 °F 100% 30.02 in 1 mi ENE 4.5 mph - - Fog Light Fog
6:00 AM 21.2 °F 14.9 °F 21.2 °F 100% 29.95 in 0.9 mi ENE 4.6 mph - N/A   Mist
6:30 AM 21.2 °F - 21.2 °F 100% 29.95 in 1.0 mi NE 2.3 mph - N/A   Mist
7:00 AM 21 °F - 21 °F 100% 30.02 in 1 mi East 2.2 mph - -   Mist
7:00 AM 21.2 °F - 21.2 °F 100% 29.95 in 1.1 mi ENE 1.2 mph - N/A   Mist
7:30 AM 21.2 °F - 21.2 °F 100% 29.95 in 0.4 mi Calm Calm - N/A   Unknown
8:00 AM 21 °F - 21 °F 98% 30.03 in 0 mi SW 2.2 mph - - Fog Partial Fog
8:00 AM 21.2 °F - 21.2 °F 100% 29.95 in 0.4 mi SW 1.2 mph - N/A   Unknown
8:30 AM 21.2 °F - 21.2 °F 100% 29.95 in 0.5 mi Calm Calm - N/A   Unknown
9:00 AM 22 °F - 22 °F 100% 30.03 in 1 mi ENE 2.2 mph - - Fog Light Fog
9:00 AM 23.0 °F - 23.0 °F 100% 29.95 in 0.7 mi Calm Calm - N/A   Mist
9:30 AM 24.8 °F - 24.8 °F 100% 29.95 in 0.9 mi SSE 2.3 mph - N/A   Mist
10:00 AM 26 °F - 26 °F 98% 30.00 in 1 mi NNW 2.2 mph - -   Mist
10:00 AM 24.8 °F - 24.8 °F 100% 29.92 in 0.9 mi Variable 1.2 mph - N/A   Mist
10:30 AM 28.4 °F 24.6 °F 28.4 °F 100% 29.92 in 0.9 mi NE 3.5 mph - N/A   Mist
11:00 AM 30 °F - 30 °F 100% 29.96 in 1 mi ENE 4.5 mph - -   Mist
11:00 AM 30.2 °F - 30.2 °F 100% 29.92 in 1.2 mi East 2.3 mph - N/A   Mist
11:30 AM 32.0 °F - 32.0 °F 100% 29.89 in 1.9 mi NNE 2.3 mph - N/A   Mist
12:00 PM 33 °F - 33 °F 99% 29.94 in 2 mi NNE 6.7 mph - -   Mist
12:00 PM 32.0 °F 27.5 °F 32.0 °F 100% 29.89 in 1.9 mi NE 4.6 mph - N/A   Mist
12:30 PM 33.8 °F 29.6 °F 33.8 °F 100% 29.89 in 3.1 mi NE 4.6 mph - N/A   Mist
1:00 PM 36 °F - 36 °F 100% 29.93 in 3 mi ENE 4.5 mph - -   Mist
1:00 PM 35.6 °F 32.8 °F 35.6 °F 100% 29.89 in 3.1 mi ENE 3.5 mph - N/A   Mist
1:30 PM 37.4 °F 32.8 °F 35.6 °F 93% 29.89 in 3.1 mi ENE 5.8 mph - N/A   Mist
2:00 PM 36 °F - 33 °F 84% 29.91 in 3 mi ENE 6.7 mph - -   Mist
2:00 PM 35.6 °F 30.7 °F 33.8 °F 93% 29.86 in 3.1 mi ENE 5.8 mph - N/A   Mist
2:30 PM 35.6 °F 30.7 °F 32.0 °F 87% 29.86 in 3.1 mi ENE 5.8 mph - N/A   Mist
3:00 PM 35 °F - 32 °F 84% 29.90 in 3 mi NE 6.7 mph - -   Mist
3:00 PM 35.6 °F 30.7 °F 32.0 °F 87% 29.86 in 3.1 mi NE 5.8 mph - N/A   Mist
3:30 PM 35.6 °F 29.9 °F 32.0 °F 87% 29.86 in 3.7 mi NE 6.9 mph - N/A   Unknown
4:00 PM 34 °F - 31 °F 84% 29.91 in 4 mi NE 6.7 mph - -   Mist
4:00 PM 33.8 °F 28.6 °F 32.0 °F 93% 29.86 in 3.7 mi NE 5.8 mph - N/A   Unknown
4:30 PM 33.8 °F 29.6 °F 30.2 °F 87% 29.86 in 3.7 mi NE 4.6 mph - N/A   Unknown
5:00 PM 33 °F - 30 °F 85% 29.91 in 3 mi NE 4.5 mph - -   Mist
5:00 PM 32.0 °F 27.5 °F 30.2 °F 93% 29.86 in 3.1 mi NE 4.6 mph - N/A   Mist
5:30 PM 32.0 °F 28.7 °F 32.0 °F 100% 29.86 in 3.1 mi NE 3.5 mph - N/A   Partly Cloudy
6:00 PM 32 °F - 31 °F 92% 29.92 in 3 mi ESE 2.2 mph - -   Mist
6:00 PM 33.8 °F - 32.0 °F 93% 29.86 in 3.1 mi ENE 1.2 mph - N/A   Scattered Clouds
6:30 PM 32.0 °F 27.5 °F 32.0 °F 100% 29.89 in 3.1 mi WSW 4.6 mph - N/A   Mostly Cloudy
7:00 PM 33 °F - 32 °F 94% 29.94 in 2 mi WSW 2.2 mph - -   Mist
7:00 PM 33.8 °F - 32.0 °F 93% 29.89 in 2.5 mi SW 2.3 mph - N/A   Mostly Cloudy
7:30 PM 33.8 °F - 32.0 °F 93% 29.89 in 2.2 mi Variable 1.2 mph - N/A   Mostly Cloudy
8:00 PM 33 °F - 32 °F 95% 29.94 in 2 mi East 2.2 mph - -   Mist
8:00 PM 33.8 °F - 32.0 °F 93% 29.89 in 2.2 mi Variable 1.2 mph - N/A   Mostly Cloudy
8:30 PM 33.8 °F - 32.0 °F 93% 29.89 in 1.6 mi Variable 1.2 mph - N/A   Mostly Cloudy
9:00 PM 33 °F - 32 °F 96% 29.95 in 2 mi WSW 2.2 mph - -   Mist
9:00 PM 33.8 °F - 32.0 °F 93% 29.89 in 1.6 mi Variable 1.2 mph - N/A   Mostly Cloudy
9:30 PM 32.0 °F - 32.0 °F 100% 29.89 in 1.6 mi WSW 1.2 mph - N/A   Mostly Cloudy
10:00 PM 33 °F - 32 °F 96% 29.95 in 1 mi NW 2.2 mph - -   Mist
10:00 PM 32.0 °F - 32.0 °F 100% 29.89 in 1.2 mi WNW 1.2 mph - N/A   Mostly Cloudy
10:30 PM 33.8 °F - 32.0 °F 93% 29.92 in 1.2 mi Variable 1.2 mph - N/A   Mostly Cloudy
11:00 PM 33 °F - 33 °F 97% 29.96 in 1 mi NNE 2.2 mph - -   Mist
11:00 PM 33.8 °F - 32.0 °F 93% 29.89 in 1.2 mi Variable 1.2 mph - N/A   Mostly Cloudy
11:30 PM 32.0 °F - 32.0 °F 100% 29.92 in 1.2 mi Variable 1.2 mph - N/A   Mostly Cloudy